Regional Weather Roundup
Issued by NWS

Home | Current Version | Previous Version | Graphics & Text | Print | Product List | Glossary On
Versions: 1 2 3 4 5 6 7 8 9 10 11 12 13 14 15 16 17 18 19 20 21 22 23 24 25 26 27
000
ASUS45 KCYS 302110
RWRWY

WYOMING REGIONAL WEATHER ROUNDUP
NATIONAL WEATHER SERVICE CHEYENNE WY
300 PM MDT MON MAY 30 2016

NOTE:  "FAIR" INDICATES FEW OR NO CLOUDS BELOW 12,000 FEET
WITH NO SIGNIFICANT WEATHER AND/OR OBSTRUCTIONS TO VISIBILITY.

WYZ001-302200-
YELLOWSTONE NATIONAL PARK

CITY           SKY/WX    TMP DP  RH WIND       PRES   REMARKS
LK YELLOWSTONE   N/A     56  16  20 W14G28    30.18R
W YELLOWSTONE  NOT AVBL

$$
WYZ002>013-054>058-071-098>099-302200-
NORTHERN WYOMING

CITY           SKY/WX    TMP DP  RH WIND       PRES   REMARKS
JACKSON        PTSUNNY   61  36  39 SW16G29   30.12S
CODY           PTSUNNY   55  43  62 N20G25    30.05R
GREYBULL       FAIR      70  39  32 N20G26    29.97R
WORLAND        LGT RAIN  61  45  55 N14G24    29.98R
SHERIDAN       LGT RAIN  55  48  77 W14       30.04R
BUFFALO        LGT RAIN  52  46  80 N21G33    30.04R
GILLETTE       PTSUNNY   64  44  48 NW9       29.96F
HULETT         FAIR      61  50  67 W6        29.98F
NEWCASTLE      FAIR      70  36  28 NW13G24   29.93F

$$
WYZ014>020-022>026-101>103-302200-
CENTRAL WYOMING

CITY           SKY/WX    TMP DP  RH WIND       PRES   REMARKS
BIG PINEY      FAIR      65  29  25 NW21G29   30.14F
PINEDALE       FAIR      63  32  31 W17G29    30.14F
DUBOIS         MOCLDY    61  25  25 N17G29    30.08F
LANDER         FAIR      73  28  18 W18G24    29.98F
RIVERTON       CLOUDY    74  27  17 W14G24    29.98F
CASPER         CLOUDY    63  40  42 S9        29.99F
DOUGLAS          N/A    N/A N/A N/A MISG      30.01F

$$
WYZ021-027>030-104>119-302200-
SOUTHERN WYOMING

CITY           SKY/WX    TMP DP  RH WIND       PRES   REMARKS
EVANSTON       FAIR      63  33  32 W8G28     30.18F
KEMMERER         N/A     63  30  29 W16G32    30.18S
FORT BRIDGER   CLEAR     66  32  28 NW20G28   30.19F
ROCK SPRINGS   FAIR      68  26  20 W22G31    30.11F
DIXON          FAIR      66  37  34 S9        30.13F
RAWLINS        PTSUNNY   65  29  25 W17G28    30.08F
SARATOGA       FAIR      64  32  29 W12G23    30.12F
LARAMIE        CLOUDY    64  35  34 NW30G39   30.09S
CHEYENNE       PTSUNNY   57  47  69 N3        30.06R
TORRINGTON     FAIR      74  38  27 NW15      29.93R
PINE BLUFFS    LGT RAIN  57  45  62 CALM      30.02F

$$




USA.gov is the U.S. government's official web portal to all federal, state and local government web resources and services.